| time (UTC) | temp F | wind direction | speed MPH | gust MPH | rain 1hr in | rain 24hr in | rain mn in | humidity % | barometer mb |
| 20260507182018 | 57 | 203 | 2.0 | 4.0 | 0.00 | 0.01 | 0.01 | 79 | 1012.1 |
| 20260507181017 | 57 | 180 | 1.0 | 4.0 | 0.00 | 0.01 | 0.01 | 79 | 1012.2 |
| 20260507180015 | 57 | 158 | 2.0 | 6.0 | 0.00 | 0.01 | 0.01 | 80 | 1012.1 |
| 20260507175017 | 57 | 113 | 1.0 | 4.0 | 0.00 | 0.01 | 0.01 | 80 | 1012.0 |
| 20260507174018 | 58 | 0.0 | 2.0 | 0.01 | 0.01 | 0.01 | 79 | 1012.0 | |
| 20260507173017 | 58 | 23 | 1.0 | 4.0 | 0.01 | 0.01 | 0.01 | 76 | 1011.9 |
| 20260507172017 | 58 | 0 | 2.0 | 4.0 | 0.01 | 0.01 | 0.01 | 76 | 1011.9 |
| 20260507171017 | 58 | 0.0 | 2.0 | 0.01 | 0.01 | 0.01 | 75 | 1011.7 | |
| 20260507170017 | 59 | 315 | 1.0 | 3.0 | 0.01 | 0.01 | 0.01 | 75 | 1011.6 |
| 20260507165017 | 60 | 158 | 3.0 | 6.0 | 0.01 | 0.01 | 0.01 | 71 | 1011.4 |
| 20260507164017 | 61 | 180 | 3.0 | 7.0 | 0.00 | 0.00 | 0.00 | 66 | 1011.5 |
| 20260507163017 | 62 | 180 | 3.0 | 5.0 | 0.00 | 0.00 | 0.00 | 59 | 1011.4 |
| 20260507162017 | 62 | 203 | 2.0 | 4.0 | 0.00 | 0.00 | 0.00 | 58 | 1011.2 |
| 20260507161017 | 63 | 180 | 5.0 | 10.0 | 0.00 | 0.00 | 0.00 | 57 | 1011.0 |
| 20260507160019 | 63 | 203 | 3.0 | 8.0 | 0.00 | 0.00 | 0.00 | 55 | 1010.9 |
| 20260507155017 | 65 | 203 | 7.0 | 13.0 | 0.00 | 0.00 | 0.00 | 55 | 1010.8 |
| 20260507154037 | 66 | 180 | 9.0 | 17.0 | 0.00 | 0.00 | 0.00 | 51 | 1010.8 |
| 20260507153017 | 67 | 180 | 6.0 | 11.0 | 0.00 | 0.00 | 0.00 | 49 | 1010.7 |
| 20260507152017 | 67 | 180 | 5.0 | 10.0 | 0.00 | 0.00 | 0.00 | 48 | 1010.6 |
| 20260507151037 | 68 | 203 | 3.0 | 7.0 | 0.00 | 0.00 | 0.00 | 48 | 1010.6 |
| 20260507150039 | 68 | 180 | 2.0 | 5.0 | 0.00 | 0.00 | 0.00 | 48 | 1010.6 |
| 20260507145017 | 69 | 203 | 4.0 | 7.0 | 0.00 | 0.00 | 0.00 | 46 | 1010.6 |
| 20260507144037 | 69 | 225 | 2.0 | 5.0 | 0.00 | 0.00 | 0.00 | 48 | 1010.5 |
| 20260507143019 | 68 | 0.0 | 2.0 | 0.00 | 0.00 | 0.00 | 46 | 1010.5 | |
| 20260507142017 | 68 | 270 | 2.0 | 5.0 | 0.00 | 0.00 | 0.00 | 46 | 1010.5 |
| 20260507141037 | 68 | 203 | 2.0 | 6.0 | 0.00 | 0.00 | 0.00 | 45 | 1010.6 |
| 20260507140017 | 71 | 248 | 2.0 | 5.0 | 0.00 | 0.00 | 0.00 | 44 | 1010.6 |
| 20260507135017 | 69 | 180 | 2.0 | 4.0 | 0.00 | 0.00 | 0.00 | 46 | 1010.7 |
| 20260507134017 | 69 | 225 | 3.0 | 7.0 | 0.00 | 0.00 | 0.00 | 48 | 1010.7 |
| 20260507133017 | 68 | 180 | 2.0 | 6.0 | 0.00 | 0.00 | 0.00 | 49 | 1010.7 |
| 20260507132017 | 68 | 180 | 4.0 | 8.0 | 0.00 | 0.00 | 0.00 | 47 | 1010.8 |
| 20260507131017 | 67 | 158 | 4.0 | 8.0 | 0.00 | 0.00 | 0.00 | 49 | 1010.9 |
| 20260507130017 | 67 | 203 | 2.0 | 5.0 | 0.00 | 0.00 | 0.00 | 47 | 1011.0 |
| 20260507125017 | 67 | 248 | 4.0 | 8.0 | 0.00 | 0.00 | 0.00 | 47 | 1011.1 |
| 20260507124017 | 67 | 225 | 5.0 | 7.0 | 0.00 | 0.00 | 0.00 | 48 | 1011.1 |
| 20260507123017 | 66 | 248 | 3.0 | 6.0 | 0.00 | 0.00 | 0.00 | 48 | 1011.1 |
| 20260507122017 | 66 | 270 | 4.0 | 9.0 | 0.00 | 0.00 | 0.00 | 47 | 1011.2 |
| 20260507121038 | 67 | 293 | 4.0 | 9.0 | 0.00 | 0.00 | 0.00 | 47 | 1011.3 |
| 20260507120017 | 67 | 270 | 5.0 | 9.0 | 0.00 | 0.00 | 0.00 | 47 | 1011.3 |
| 20260507115017 | 68 | 270 | 6.0 | 17.0 | 0.00 | 0.00 | 0.00 | 48 | 1011.4 |
| 20260507114037 | 67 | 270 | 6.0 | 15.0 | 0.00 | 0.00 | 0.00 | 50 | 1011.6 |
| 20260507113017 | 67 | 225 | 6.0 | 11.0 | 0.00 | 0.00 | 0.00 | 51 | 1011.6 |
| 20260507112015 | 66 | 270 | 5.0 | 10.0 | 0.00 | 0.00 | 0.00 | 52 | 1011.7 |
| 20260507111015 | 65 | 225 | 4.0 | 9.0 | 0.00 | 0.00 | 0.00 | 52 | 1011.8 |
| 20260507110015 | 66 | 270 | 5.0 | 11.0 | 0.00 | 0.00 | 0.00 | 51 | 1011.9 |
| 20260507105015 | 66 | 203 | 7.0 | 13.0 | 0.00 | 0.00 | 0.00 | 51 | 1012.0 |
| 20260507104016 | 68 | 203 | 6.0 | 14.0 | 0.00 | 0.00 | 0.00 | 52 | 1012.1 |
| 20260507103037 | 65 | 270 | 5.0 | 9.0 | 0.00 | 0.00 | 0.00 | 52 | 1012.0 |
| 20260507102015 | 64 | 270 | 4.0 | 7.0 | 0.00 | 0.00 | 0.00 | 56 | 1012.1 |
| 20260507101015 | 63 | 248 | 5.0 | 11.0 | 0.00 | 0.00 | 0.00 | 55 | 1012.0 |
| 20260507100015 | 63 | 225 | 8.0 | 14.0 | 0.00 | 0.00 | 0.00 | 55 | 1012.0 |
| 20260507095015 | 63 | 248 | 4.0 | 8.0 | 0.00 | 0.00 | 0.00 | 57 | 1011.9 |
| 20260507094015 | 62 | 225 | 6.0 | 12.0 | 0.00 | 0.00 | 0.00 | 58 | 1012.0 |
| 20260507093015 | 62 | 225 | 7.0 | 12.0 | 0.00 | 0.00 | 0.00 | 58 | 1012.1 |
| 20260507092016 | 62 | 225 | 6.0 | 14.0 | 0.00 | 0.00 | 0.00 | 58 | 1011.8 |
| 20260507091035 | 62 | 270 | 5.0 | 11.0 | 0.00 | 0.00 | 0.00 | 57 | 1011.7 |
| 20260507090019 | 63 | 270 | 8.0 | 17.0 | 0.00 | 0.00 | 0.00 | 56 | 1011.6 |
| 20260507085016 | 62 | 270 | 5.0 | 9.0 | 0.00 | 0.00 | 0.00 | 56 | 1011.6 |
| 20260507084015 | 63 | 270 | 5.0 | 10.0 | 0.00 | 0.00 | 0.00 | 56 | 1011.5 |
| 20260507083015 | 63 | 270 | 6.0 | 13.0 | 0.00 | 0.00 | 0.00 | 57 | 1011.3 |
| 20260507082016 | 61 | 270 | 7.0 | 14.0 | 0.00 | 0.00 | 0.00 | 59 | 1011.3 |
| 20260507081035 | 61 | 270 | 5.0 | 9.0 | 0.00 | 0.00 | 0.00 | 59 | 1011.2 |
| 20260507080015 | 61 | 270 | 8.0 | 15.0 | 0.00 | 0.00 | 0.00 | 59 | 1011.1 |
| 20260507075015 | 61 | 270 | 8.0 | 14.0 | 0.00 | 0.00 | 0.00 | 60 | 1011.2 |
| 20260507074015 | 60 | 293 | 7.0 | 12.0 | 0.00 | 0.00 | 0.00 | 64 | 1010.8 |
| 20260507073016 | 59 | 270 | 6.0 | 10.0 | 0.00 | 0.00 | 0.00 | 64 | 1010.8 |
| 20260507072015 | 58 | 270 | 6.0 | 12.0 | 0.00 | 0.00 | 0.00 | 66 | 1010.6 |
| 20260507071015 | 57 | 270 | 8.0 | 12.0 | 0.00 | 0.00 | 0.00 | 66 | 1010.6 |
| 20260507070036 | 57 | 270 | 9.0 | 20.0 | 0.00 | 0.00 | 0.00 | 66 | 1010.5 |
| 20260507065035 | 57 | 270 | 10.0 | 16.0 | 0.00 | 0.00 | 0.00 | 66 | 1010.6 |
| 20260507064015 | 57 | 270 | 10.0 | 18.0 | 0.00 | 0.00 | 0.00 | 66 | 1010.5 |
| 20260507063036 | 57 | 270 | 11.0 | 18.0 | 0.00 | 0.00 | 0.00 | 66 | 1010.5 |
| 20260507062015 | 57 | 270 | 13.0 | 22.0 | 0.00 | 0.00 | 0.00 | 66 | 1010.5 |
| 20260507061015 | 57 | 293 | 11.0 | 17.0 | 0.00 | 0.00 | 0.00 | 67 | 1010.3 |
| 20260507060037 | 57 | 293 | 9.0 | 17.0 | 0.00 | 0.00 | 0.00 | 66 | 1010.2 |
| 20260507055016 | 57 | 270 | 8.0 | 17.0 | 0.00 | 0.00 | 0.00 | 66 | 1010.0 |
| 20260507054015 | 57 | 270 | 10.0 | 16.0 | 0.00 | 0.00 | 0.00 | 65 | 1010.1 |
| 20260507053035 | 57 | 270 | 9.0 | 17.0 | 0.00 | 0.00 | 0.00 | 66 | 1009.9 |
| 20260507052015 | 57 | 270 | 9.0 | 18.0 | 0.00 | 0.00 | 0.00 | 67 | 1009.8 |
| 20260507051015 | 56 | 293 | 9.0 | 17.0 | 0.00 | 0.00 | 0.00 | 67 | 1009.7 |
| 20260507050015 | 56 | 293 | 11.0 | 18.0 | 0.00 | 0.00 | 0.00 | 67 | 1009.4 |
| 20260507045036 | 56 | 270 | 10.0 | 17.0 | 0.00 | 0.00 | 0.00 | 67 | 1009.4 |
| 20260507044015 | 56 | 270 | 8.0 | 15.0 | 0.00 | 0.00 | 0.00 | 68 | 1009.4 |
| 20260507043015 | 56 | 270 | 9.0 | 15.0 | 0.00 | 0.00 | 0.00 | 69 | 1009.3 |
| 20260507042017 | 56 | 270 | 9.0 | 15.0 | 0.00 | 0.00 | 0.00 | 69 | 1009.1 |
| 20260507041015 | 55 | 270 | 8.0 | 14.0 | 0.00 | 0.00 | 0.00 | 70 | 1009.1 |
| 20260507040016 | 55 | 270 | 8.0 | 15.0 | 0.00 | 0.00 | 0.00 | 71 | 1008.9 |
| 20260507035015 | 55 | 270 | 9.0 | 18.0 | 0.00 | 0.00 | 0.00 | 71 | 1009.2 |
| 20260507034035 | 55 | 270 | 8.0 | 14.0 | 0.00 | 0.00 | 0.00 | 70 | 1009.1 |
| 20260507033017 | 56 | 270 | 9.0 | 18.0 | 0.00 | 0.00 | 0.00 | 69 | 1009.2 |
| 20260507032016 | 56 | 270 | 10.0 | 19.0 | 0.00 | 0.00 | 0.00 | 69 | 1009.0 |
| 20260507031016 | 56 | 270 | 8.0 | 15.0 | 0.00 | 0.00 | 0.00 | 69 | 1009.0 |
| 20260507030016 | 56 | 270 | 7.0 | 15.0 | 0.00 | 0.00 | 0.00 | 69 | 1009.0 |
| 20260507025015 | 56 | 270 | 10.0 | 16.0 | 0.00 | 0.00 | 0.00 | 69 | 1008.9 |
| 20260507024036 | 56 | 270 | 7.0 | 13.0 | 0.00 | 0.00 | 0.00 | 69 | 1008.6 |
| 20260507023015 | 57 | 270 | 9.0 | 18.0 | 0.00 | 0.00 | 0.00 | 70 | 1008.5 |
| 20260507022015 | 57 | 270 | 7.0 | 14.0 | 0.00 | 0.00 | 0.00 | 70 | 1008.5 |
| 20260507021016 | 57 | 270 | 9.0 | 15.0 | 0.00 | 0.00 | 0.00 | 70 | 1008.5 |
| 20260507020016 | 57 | 270 | 9.0 | 16.0 | 0.00 | 0.00 | 0.00 | 71 | 1008.5 |
| 20260507015056 | 57 | 270 | 9.0 | 15.0 | 0.00 | 0.00 | 0.00 | 72 | 1008.5 |
| 20260507014015 | 57 | 270 | 8.0 | 14.0 | 0.00 | 0.00 | 0.00 | 71 | 1008.4 |
| 20260507013015 | 57 | 270 | 9.0 | 16.0 | 0.00 | 0.00 | 0.00 | 71 | 1008.4 |
| 20260507012015 | 58 | 270 | 9.0 | 17.0 | 0.00 | 0.00 | 0.00 | 71 | 1008.2 |
| 20260507010017 | 58 | 270 | 7.0 | 17.0 | 0.00 | 0.00 | 0.00 | 70 | 1008.1 |
| 20260507005016 | 58 | 270 | 10.0 | 22.0 | 0.00 | 0.00 | 0.00 | 70 | 1007.8 |
| 20260507004015 | 58 | 270 | 9.0 | 20.0 | 0.00 | 0.00 | 0.00 | 70 | 1007.7 |
| 20260507003017 | 59 | 270 | 8.0 | 16.0 | 0.00 | 0.00 | 0.00 | 70 | 1007.7 |
| 20260507002016 | 59 | 270 | 10.0 | 17.0 | 0.00 | 0.00 | 0.00 | 70 | 1007.6 |
| 20260507001015 | 59 | 270 | 7.0 | 17.0 | 0.00 | 0.00 | 0.00 | 70 | 1007.4 |
| 20260507000037 | 60 | 270 | 8.0 | 13.0 | 0.00 | 0.00 | 0.00 | 71 | 1007.5 |
| 20260506235035 | 60 | 270 | 8.0 | 17.0 | 0.00 | 0.00 | 0.00 | 71 | 1007.3 |
| 20260506233016 | 60 | 270 | 7.0 | 15.0 | 0.00 | 0.00 | 0.00 | 71 | 1007.3 |
| 20260506232015 | 60 | 225 | 7.0 | 13.0 | 0.00 | 0.00 | 0.00 | 71 | 1007.1 |
| 20260506231016 | 60 | 225 | 7.0 | 16.0 | 0.00 | 0.00 | 0.00 | 71 | 1006.9 |
| 20260506230036 | 60 | 270 | 6.0 | 14.0 | 0.00 | 0.00 | 0.00 | 69 | 1006.7 |
| 20260506225036 | 61 | 270 | 7.0 | 16.0 | 0.00 | 0.00 | 0.00 | 67 | 1006.7 |
| 20260506224015 | 61 | 270 | 8.0 | 19.0 | 0.00 | 0.00 | 0.00 | 66 | 1006.4 |
| 20260506223016 | 61 | 248 | 6.0 | 10.0 | 0.00 | 0.00 | 0.00 | 65 | 1006.1 |
| 20260506222016 | 62 | 225 | 9.0 | 19.0 | 0.00 | 0.00 | 0.00 | 64 | 1005.9 |
| 20260506221016 | 62 | 225 | 7.0 | 13.0 | 0.00 | 0.00 | 0.00 | 64 | 1005.7 |
| 20260506220016 | 59 | 248 | 3.0 | 10.0 | 0.00 | 0.00 | 0.00 | 69 | 1005.3 |
| 20260506215017 | 60 | 135 | 1.0 | 4.0 | 0.00 | 0.00 | 0.00 | 67 | 1005.0 |
| 20260506214015 | 61 | 135 | 1.0 | 4.0 | 0.00 | 0.00 | 0.00 | 65 | 1004.9 |
| 20260506213015 | 62 | 135 | 1.0 | 7.0 | 0.00 | 0.00 | 0.00 | 64 | 1004.8 |
| 20260506212015 | 63 | 180 | 2.0 | 5.0 | 0.00 | 0.00 | 0.00 | 62 | 1004.6 |
| 20260506211016 | 64 | 135 | 2.0 | 5.0 | 0.00 | 0.00 | 0.00 | 61 | 1004.6 |
| 20260506210036 | 64 | 135 | 5.0 | 8.0 | 0.00 | 0.00 | 0.00 | 60 | 1004.4 |
| 20260506205016 | 65 | 135 | 7.0 | 12.0 | 0.00 | 0.00 | 0.00 | 59 | 1004.2 |
| 20260506203056 | 65 | 158 | 8.0 | 15.0 | 0.00 | 0.00 | 0.00 | 58 | 1004.1 |
| 20260506202015 | 66 | 158 | 9.0 | 17.0 | 0.00 | 0.00 | 0.00 | 58 | 1004.0 |
| 20260506201037 | 66 | 158 | 8.0 | 14.0 | 0.00 | 0.00 | 0.00 | 57 | 1004.0 |
| 20260506200056 | 66 | 158 | 9.0 | 16.0 | 0.00 | 0.00 | 0.00 | 57 | 1003.8 |
| 20260506195015 | 66 | 158 | 8.0 | 18.0 | 0.00 | 0.00 | 0.00 | 57 | 1003.5 |
| 20260506194035 | 66 | 158 | 10.0 | 18.0 | 0.00 | 0.00 | 0.00 | 56 | 1003.5 |
| 20260506193015 | 67 | 135 | 9.0 | 16.0 | 0.00 | 0.00 | 0.00 | 55 | 1003.5 |
| 20260506192015 | 67 | 135 | 9.0 | 16.0 | 0.00 | 0.00 | 0.00 | 55 | 1003.3 |
| 20260506191015 | 67 | 158 | 9.0 | 14.0 | 0.00 | 0.00 | 0.00 | 55 | 1003.3 |
| 20260506190037 | 68 | 158 | 8.0 | 13.0 | 0.00 | 0.00 | 0.00 | 54 | 1003.2 |
| 20260506185016 | 68 | 158 | 9.0 | 16.0 | 0.00 | 0.00 | 0.00 | 54 | 1003.0 |
| 20260506184016 | 68 | 158 | 9.0 | 18.0 | 0.00 | 0.00 | 0.00 | 53 | 1002.8 |
| 20260506183016 | 69 | 135 | 11.0 | 19.0 | 0.00 | 0.00 | 0.00 | 52 | 1002.6 |